LFKCLFKJ

Guest
Details From LFKC - St Catherine
To LFKJ - Campo Dell Oro
Flight Number -
Tags Generated
Created
Modified
Stats Distance 37 nm / 69 km
Max Altitude 0 ft / 0 m
Waypoints 2
Social Downloads 2
Likes 0
Share VATSIM

Download

Looking for another format? Having issues loading an existing format? Contact us
Advertisement - Login to hide

Notes

Generated

Route

LFKC LFKJ

ID Type Via Altitude Latitude Longitude Leg Dist Tot Dist Heading (true) Name
O LFKC APT - 0 ft / 0 m 42.54117˚ 8.79283˚ - 0 nm - -
O LFKJ APT - 0 ft / 0 m 41.92445˚ 8.79174˚ 37 nm 37 nm 180° / 180° -

Altitude Profile

Advertisement - Login to hide

LFKC

Details ICAO LFKC (CLY)
Name St Catherine
Region France
Timezone Europe/Paris (UTC+2.0)
Stats Elevation 208 ft / 63 m (AMSL)
Location 42.530762° 8.792925°
Runways 1
Magnetic Variation 2.391° E

METAR

LFKC 270000Z AUTO VRB03KT 9000 NSC 17/16 Q1016

Decode

TAF

TAF LFKC 262029Z 2620/2715 CNL

Decode

Departure Runways

ID Width Length Bearing (true) Bearing (mag) Surface Threshold Offset Overrun Length
18 131 ft / 40 m 7,596 ft / 2,315 m 179.60° 177.21° Concrete 0 ft / 0 m 0 ft / 0 m
36 131 ft / 40 m 7,596 ft / 2,315 m 359.60° 357.21° Concrete 656 ft / 200 m 0 ft / 0 m

LFKJ

Details ICAO LFKJ (AJA)
Name Napoleon Bonaparte
Region France
Timezone Europe/Paris (UTC+2.0)
Stats Elevation 18 ft / 5 m (AMSL)
Location 41.922886° 8.799587°
Runways 2
Magnetic Variation 2.377° E

METAR

LFKJ 270000Z AUTO 04004KT CAVOK 18/14 Q1016 NOSIG

Decode

TAF

TAF LFKJ 262000Z 2621/2721 VRB05KT CAVOK TEMPO 2712/2715 27010KT

Decode

Destination Runways

ID Width Length Bearing (true) Bearing (mag) Surface Threshold Offset Overrun Length
02 180 ft / 55 m 7,899 ft / 2,408 m 24.94° 22.56° Asphalt 0 ft / 0 m 164 ft / 50 m
10 98 ft / 30 m 3,447 ft / 1,051 m 94.35° 91.97° Concrete 0 ft / 0 m 164 ft / 50 m
20 180 ft / 55 m 7,899 ft / 2,408 m 204.95° 202.57° Asphalt 745 ft / 227 m 230 ft / 70 m
28 98 ft / 30 m 3,447 ft / 1,051 m 274.36° 271.98° Concrete 213 ft / 65 m 0 ft / 0 m

Approach Navaids

Runway Type Ident Frequency Range Bearing (true) Bearing (mag) Slope Elevation
02 Localiser AC 110.30 MHz 27 nm / 50 km 24.92° 22.54° - 18 ft / 5 m (AMSL)
02 Glidescope AC 110.30 MHz 27 nm / 50 km 24.92° 22.54° 3.00° 18 ft / 5 m (AMSL)
02 DME AC 110.30 MHz 27 nm / 50 km - - - 18 ft / 5 m (AMSL)

Popular Alternatives